IRIDIUM 38 [-] (25043 NORAD) Tracking and Keplerian Element Data

This shows tracking and keplerian element data for the satellite.

Feedback or suggestion? Click here.




ElementValue
Catalog25043
NameIRIDIUM 38 [-]
Epoch Orbit10479
Epoch Day348.93989575
Epoch Year2018
RAAN150.3777
Inclination86.3959
Eccentricity0.0001195
Argument of Perigee50.5148
Mean Anonmoly309.6154
Mean Motion14.36122029
Decay Rate1.16E-06
L11 25043U 97069E 18348.93989575 .00000116 00000-0 33174-4 0 9994
L22 25043 86.3959 150.3777 0001195 50.5148 309.6154 14.36122029104794

Live tracking and technical data element details for IRIDIUM 38 [-] (NORAD 25043). IRIDIUM 38 [-] can be tracked NOW for your location showing map with azimuth and elevation plus other details from your city location.

Track the satellite on the map from your city or location and see movement details for azimuth, elevation, latitude, longitude, range, height, and movement on the map or in text.







IsCatalogInMostPopularTable: catalog: 25043, numindb: 51
Update: records affected: 1



GetName: 25043 IRIDIUM 38 [-]

Hit Count: updated at: Sat, 15 Dec 2018 17:51:00 GMT